Weather History for Cocoa Beach, FL

Change the Weather History Date:

Tuesday, October 8, 2013

  Actual Average Record
Temperature  
Mean Temperature 82 °F -  
Max Temperature 90 °F 81 °F 90 °F (2013)
Min Temperature 75 °F 73 °F 48 °F (2004)
Cooling Degree Days 17    
Growing Degree Days 32 (Base 50)    
Moisture  
Dew Point 73 °F    
Average Humidity 82    
Maximum Humidity 94    
Minimum Humidity 53    
Precipitation  
Precipitation 0.05 in - - ()
Sea Level Pressure  
Sea Level Pressure 29.88 in    
Wind  
Wind Speed 12 mph (West)    
Max Wind Speed 15 mph    
Max Gust Speed -    
Visibility 10 miles    
Events Rain    
Averages and records for this station are not official NWS values.
T = Trace of Precipitation, MM = Missing Value Source: NWS Daily Summary

Daily Weather History Graph

Daily Weather History Graph

Search for Another Location

Airport:

Trip Planner

Search our weather history database for the weather conditions in past years. The results will help you decide how hot, cold, wet, or windy it might be!

Date:

Astronomy

Oct. 08, 2013 Rise Set
Actual Time 7:19 AM EDT 7:00 PM EDT
Civil Twilight 6:55 AM EDT 7:23 PM EDT
Nautical Twilight 6:28 AM EDT 7:50 PM EDT
Astronomical Twilight 6:01 AM EDT 8:18 PM EDT
Moon 10:53 AM EDT (10/8) 9:54 PM EDT (10/8)
Length of Visible Light 12h 28m
Length of Day
11h 41m
Waxing Crescent, 16% of the Moon is Illuminated
Oct 8
Waxing Crescent
Oct 11
First Quarter
Oct 18
Full
Oct 26
Last Quarter
Nov 3
New

Hourly Weather History & Observations

Time (EDT) Temp. Heat Index Dew Point Humidity Pressure Visibility Wind Dir Wind Speed Gust Speed Precip Events Conditions
12:58 AM 75.9 °F - 73.6 °F 92% 29.85 in 10.0 mi SSW 12.7 mph - N/A   Clear
1:58 AM 76.6 °F - 73.2 °F 89% 29.83 in 10.0 mi SW 12.7 mph - N/A   Clear
2:58 AM 76.3 °F - 73.0 °F 90% 29.81 in 10.0 mi SW 15.0 mph - N/A   Clear
3:58 AM 75.9 °F - 72.9 °F 90% 29.83 in 10.0 mi SSW 12.7 mph - N/A   Clear
4:58 AM 76.1 °F - 73.0 °F 90% 29.83 in 10.0 mi SW 15.0 mph - N/A   Partly Cloudy
5:58 AM 75.7 °F - 73.0 °F 91% 29.83 in 10.0 mi SW 12.7 mph - N/A   Clear
6:13 AM 75.2 °F - 73.4 °F 94% 29.82 in 10.0 mi SW 13.8 mph - N/A   Mostly Cloudy
6:33 AM 75.2 °F - 73.4 °F 94% 29.83 in 10.0 mi SW 13.8 mph - N/A   Scattered Clouds
6:58 AM 75.7 °F - 73.0 °F 91% 29.86 in 10.0 mi WSW 11.5 mph - N/A   Partly Cloudy
7:58 AM 75.6 °F - 73.2 °F 92% 29.86 in 10.0 mi SW 9.2 mph - N/A   Scattered Clouds
8:03 AM 75.2 °F - 73.4 °F 94% 29.86 in 10.0 mi SW 10.4 mph - N/A   Mostly Cloudy
8:58 AM 76.8 °F - 73.4 °F 89% 29.88 in 10.0 mi WSW 11.5 mph - N/A   Overcast
9:58 AM 78.6 °F - 73.8 °F 85% 29.91 in 10.0 mi SW 11.5 mph - N/A   Mostly Cloudy
10:03 AM 78.8 °F - 73.4 °F 83% 29.89 in 10.0 mi WSW 11.5 mph - N/A   Scattered Clouds
10:38 AM 82.4 °F 88.2 °F 73.4 °F 74% 29.89 in 10.0 mi SW 11.5 mph - N/A   Mostly Cloudy
10:43 AM 82.4 °F 89.5 °F 75.2 °F 79% 29.89 in 10.0 mi SW 10.4 mph - N/A   Mostly Cloudy
10:48 AM 82.4 °F 88.2 °F 73.4 °F 74% 29.89 in 10.0 mi WSW 9.2 mph - N/A   Scattered Clouds
10:58 AM 82.6 °F 89.1 °F 74.5 °F 76% 29.91 in 10.0 mi WSW 10.4 mph - N/A   Scattered Clouds
11:58 AM 85.6 °F 94.2 °F 74.7 °F 70% 29.90 in 10.0 mi West 10.4 mph - N/A   Partly Cloudy
12:58 PM 87.4 °F 94.4 °F 72.5 °F 61% 29.88 in 10.0 mi West 12.7 mph - N/A   Partly Cloudy
1:58 PM 88.5 °F 94.4 °F 70.9 °F 56% 29.86 in 10.0 mi WSW 12.7 mph - N/A   Partly Cloudy
2:58 PM 89.2 °F 94.5 °F 69.8 °F 53% 29.85 in 10.0 mi WSW 13.8 mph - N/A   Clear
3:58 PM 87.6 °F 93.1 °F 70.7 °F 57% 29.86 in 10.0 mi WNW 10.4 mph - N/A   Clear
4:58 PM 82.4 °F 86.7 °F 71.1 °F 68% 29.86 in 10.0 mi WNW 9.2 mph - N/A   Partly Cloudy
5:58 PM 82.9 °F 87.5 °F 71.1 °F 67% 29.88 in 10.0 mi West 8.1 mph - N/A   Clear
6:58 PM 78.3 °F - 70.5 °F 77% 29.90 in 10.0 mi NW 13.8 mph - N/A   Mostly Cloudy
7:25 PM 77.0 °F - 71.6 °F 83% 29.90 in 10.0 mi NNW 8.1 mph - N/A   Light Drizzle
7:53 PM 75.2 °F - 73.4 °F 94% 29.89 in 10.0 mi WNW 5.8 mph - N/A   Scattered Clouds
7:58 PM 75.6 °F - 73.0 °F 92% 29.91 in 10.0 mi NW 5.8 mph - 0.04 in   Partly Cloudy
8:58 PM 76.8 °F - 72.7 °F 87% 29.93 in 10.0 mi NW 12.7 mph - N/A   Partly Cloudy
9:58 PM 75.6 °F - 72.5 °F 90% 29.94 in 10.0 mi WNW 11.5 mph - N/A   Clear
10:58 PM 75.4 °F - 72.3 °F 90% 29.94 in 10.0 mi NW 11.5 mph - N/A   Clear
11:51 PM 75.2 °F - 71.6 °F 89% 29.93 in 10.0 mi NNW 9.2 mph - N/A Rain Light Rain
11:58 PM 75.2 °F - 71.6 °F 89% 29.95 in 7.0 mi North 11.5 mph - 0.01 in Rain Rain